Pagina principală
METAR-TAF:

METAR-TAF

Aeroporturi :

NWS Office

Majuro, Insulele Marshall

Latitudine: 07-05N, longitudine: 171-12E, elevație: 4 m

Observații meteo curente

Raportul a fost făcut în urmă cu 2 ore și 25 de minute, la 23:52 UTC
Vânt 5 kt de la Est
Temperatură 31°C
Umiditate 71%
Presiune 1009 hPa
Vizibilitate: 24.1 km
Nori puțini la o înălțime de 1500 picior
Nori fragmentați la o înălțime de 30000 picior

METAR: PKMR 092352Z 09005KT 15SM FEW015 BKN300 31/25 A2981 RMK SLP095 60001 8/101 T03100245 10310 20275 58014

Ora: 14:17 (02:17 UTC)


TAF: lipsă

Observații și prognoze meteo pentru peste 4.000 de aeroporturi (rapoarte METAR și TAF).

Stațiile disponibile sunt reprezentate pe hartă prin puncte galbene și roșii.

Țineți indicatorul mouse-ului pe punctul dorit pentru a vedea denumirea stației.

Apoi, faceți clic pentru a vedea observațiile și prognozele meteorologice.

Pentru a schimba harta: Pentru mărire, faceți clic pe butoanele verzi cu cruce neagră; pentru micșorare, pe butonul verde cu o liniuță; pentru hărți învecinate, pe săgețile verzi.


METAR-TAF: